This is the latest recevied weather packets stored in our database for station/object VK2EHQ. If no packets are shown the sender has not sent any weather packets the latest 10 day(s).
| Time | Temp. | Humidity | Pressure | Rain* | Wind** | Luminosity | Snow |
|---|---|---|---|---|---|---|---|
| 1788001188 | 12.78° C | 57% | 1031.1 hPa | 0 mm | - | - | - |
| 1788000588 | 12.78° C | 58% | 1031.2 hPa | 0 mm | - | - | - |
| 1787999988 | 12.78° C | 59% | 1031.1 hPa | 0 mm | - | - | - |
| 1787999388 | 12.78° C | 59% | 1031 hPa | 0 mm | - | - | - |
| 1787998788 | 12.78° C | 60% | 1030.8 hPa | 0 mm | - | - | - |
| 1787998188 | 12.78° C | 60% | 1030.8 hPa | 0 mm | - | - | - |
| 1787997587 | 13.33° C | 61% | 1030.8 hPa | 0 mm | - | - | - |
| 1787996987 | 13.33° C | 61% | 1030.8 hPa | 0 mm | - | - | - |
| 1787996387 | 13.33° C | 62% | 1030.9 hPa | 0 mm | - | - | - |
| 1787995787 | 13.33° C | 62% | 1030.9 hPa | 0 mm | - | - | - |
| 1787995187 | 13.33° C | 63% | 1030.9 hPa | 0 mm | - | - | - |
| 1787994587 | 13.33° C | 64% | 1030.7 hPa | 0 mm | - | - | - |
| 1787993987 | 13.89° C | 65% | 1030.5 hPa | 0 mm | - | - | - |
| 1787993387 | 13.89° C | 65% | 1030.5 hPa | 0 mm | - | - | - |
| 1787992787 | 13.89° C | 66% | 1030.6 hPa | 0 mm | - | - | - |
| 1787992187 | 14.44° C | 67% | 1030.6 hPa | 0 mm | - | - | - |
| 1787991587 | 14.44° C | 67% | 1030.6 hPa | 0 mm | - | - | - |
| 1787990987 | 14.44° C | 68% | 1030.4 hPa | 0 mm | - | - | - |
| 1787990387 | 15° C | 69% | 1030.3 hPa | 0 mm | - | - | - |
| 1787989786 | 15° C | 70% | 1030.3 hPa | 0 mm | - | - | - |
| 1787989187 | 15.56° C | 70% | 1030.1 hPa | 0 mm | - | - | - |
| 1787988587 | 16.11° C | 70% | 1029.9 hPa | 0 mm | - | - | - |
| 1787987986 | 16.67° C | 70% | 1029.8 hPa | 0 mm | - | - | - |
| 1787987386 | 16.67° C | 69% | 1029.6 hPa | 0 mm | - | - | - |
| 1787986786 | 17.22° C | 69% | 1029.5 hPa | 0 mm | - | - | - |
* Rain latest hour (hover to see other rain measurements)
** Current wind speed in m/s (hover to see current wind gust speed)